www.pogodaiklimat.ru

Погода и климат >> Архив погоды >> Россия >> Чукотка >> Омолон


ПОГОДА в Омолоне

АРХИВ ПОГОДЫ в Омолоне

Время (UTC), дата Ветер
(напр.,м/с)
 
Видим.   Явления Облачность Т
(С)
Тd
(С)
f
(%)
Тe
(С)
Тes
(С)
Комфортность P
(гПа)
Po
(гПа)
Тmin
(С)
Tmax
(С)
R
(мм)
R24
(мм)
S
(см)
18 11.12 штиль 0
{1}
7000 м дымка 3/0
[Ci fib]
-36.8 -40.9 66 -37 -37 опасность
обморожения
1021.9 984.2
21 11.12 штиль 0
{1}
8000 м дымка 3/0
[Ci fib]
-38.0 -42.1 65 -38 -38 опасность
обморожения
1022.3 984.4 -38.0 20
00 12.12 штиль 0
{1}
9000 м дымка 8/0
[Ci fib]
-37.8 -42.0 65 -38 -38 опасность
обморожения
1022.5 984.6
03 12.12 штиль 0
{1}
9000 м дымка 8/0
[Ci fib]
-35.4 -39.4 67 -35 -35 опасность
обморожения
1021.9 984.5
06 12.12 штиль 0
{1}
9000 м дымка 8/0
[Ci fib]
-38.2 -42.5 64 -38 -38 опасность
обморожения
1022.7 984.8
09 12.12 штиль 0 6000 м дымка 5/0
[Ci fib]
-39.3 -43.7 63 -39 -39 опасность
обморожения
1023.0 984.9 -35.4
12 12.12 штиль 0 6000 м дымка 6/0
[Ci fib]
-39.8 -44.3 62 -40 -40 опасность
обморожения
1023.1 984.9
15 12.12 штиль 0
{1}
6000 м дымка 6/0
[Ci fib]
-40.3 -44.8 62 -40 -40 опасность
обморожения
1022.8 984.6
18 12.12 штиль 0 5000 м дымка 6/0
[Ci fib]
-40.8 -45.4 61 -41 -41 опасность
обморожения
1022.9 984.5
21 12.12 штиль 0 4200 м дымка 5/0
[Ci fib]
-41.1 -45.7 61 -41 -41 опасность
обморожения
1022.5 984.1 -41.3 20
00 13.12 штиль 0 6000 м дымка 3/0
[Ci fib]
-40.9 -45.5 61 -41 -41 опасность
обморожения
1022.1 983.7 -41.3
03 13.12 штиль 0
{1}
7000 м дымка 3/0
[Ci fib]
-40.2 -44.7 62 -40 -40 опасность
обморожения
1021.2 983.1
06 13.12 штиль 0 1900 м дымка ясно -41.5 -46.2 60 -42 -42 опасность
обморожения
1020.8 982.4
09 13.12 штиль 0 1800 м дымка ясно -41.8 -46.5 60 -42 -42 опасность
обморожения
1020.5 982.1 -39.2
12 13.12 штиль 0
{1}
1900 м дымка ясно -41.6 -46.3 60 -42 -42 опасность
обморожения
1020.3 981.9
15 13.12 штиль 0
{1}
2000 м дымка 4/0
[Ci fib]
-40.8 -45.4 61 -41 -41 опасность
обморожения
1019.7 981.4
18 13.12 штиль 0 3500 м дымка 5/0
[Ci fib]
-39.3 -43.7 63 -39 -39 опасность
обморожения
1018.9 981.0
21 13.12 ЮВ 1
{2}
8000 м дымка 8/0
[Ac trans Ci fib]
-37.9 -42.2 64 -43 -43 опасность
обморожения
1018.8 981.0 -42.2 20
00 14.12 Ю 1
{2}
50 км 5/0
[Ci fib]
-38.3 -42.6 64 -43 -43 опасность
обморожения
1018.6 980.8
03 14.12 штиль 0
{2}
50 км 4/0
[Ci fib]
-38.3 -42.6 64 -38 -38 опасность
обморожения
1018.0 980.3
06 14.12 штиль 0
{2}
50 км 3/0
[Ci fib]
-41.4 -45.9 61 -41 -41 опасность
обморожения
1018.2 979.9
09 14.12 штиль 0
{2}
8000 м дымка 3/0
[Ci fib]
-42.1 -46.7 61 -42 -42 опасность
обморожения
1016.4 980.0 -38.5
12 14.12 штиль 0
{2}
8000 м дымка 3/0 2000 м
[Ci fib]
-42.1 -46.0 65 -42 -42 опасность
обморожения
1018.0 979.6
15 14.12 штиль 0
{1}
8000 м дымка ясно -41.0 -45.6 61 -41 -41 опасность
обморожения
1017.2 979.0
18 14.12 Ю 1
{2}
9000 м дымка 4/0
[Ci fib]
-40.7 -45.3 61 -46 -46 опасность
обморожения
1016.8 978.6
21 14.12 ЮВ 1
{2}
9000 м дымка 3/0
[Ci fib]
-40.6 -45.2 61 -46 -46 опасность
обморожения
1016.7 978.5 -42.2 20
00 15.12 штиль 0
{2}
9000 м дымка 4/0
[Ci fib]
-40.3 -44.8 62 -40 -40 опасность
обморожения
1015.8 977.8
03 15.12 ЮВ 1
{2}
9000 м дымка 4/0
[Ci fib]
-39.0 -43.3 64 -44 -44 опасность
обморожения
1014.9 977.2
06 15.12 В 1
{2}
8000 м дымка 4/0
[Ci fib]
-38.9 -43.3 63 -44 -44 опасность
обморожения
1015.0 977.3
09 15.12 Ю 1
{2}
50 км 9/3 1000 м
[Sc Ac trans Ci fib]
-35.5 -39.6 66 -40 -40 опасность
обморожения
1014.5 977.3 -35.5
12 15.12 штиль 0
{2}
21 км снежные кристаллы 10/8 1000 м
[Sc Ac trans Cs]
-33.5 -37.3 68 -34 -34 опасность
обморожения
1013.7 976.9
15 15.12 ЮВ 1
{1}
21 км снежные кристаллы 10/5 1000 м
[Sc Ac trans Cs]
-31.0 -34.6 70 -35 -35 опасность
обморожения
1012.5 976.1
18 15.12 штиль 0
{2}
21 км снежные кристаллы 10/6 1000 м
[Sc Ac trans Cs]
-29.1 -32.4 73 -29 -29 1011.7 975.6
21 15.12 штиль 0
{2}
21 км снежные кристаллы 10/6 1000 м
[Sc Ac trans Cs]
-28.0 -31.1 75 -28 -28 1011.6 975.4 -35.6 0.2 20
00 16.12 штиль 0
{1}
50 км {снег} 8/4 1000 м
[Sc Ac trans Ci fib]
-28.7 -31.8 75 -29 -29 1011.2 975.1
03 16.12 штиль 0
{1}
50 км 5/3 1000 м
[Sc Ac lent Ci fib]
-33.2 -36.8 70 -33 -33 опасность
обморожения
1010.7 974.1
06 16.12 В 1
{1}
50 км 9/6 1000 м
[Sc Ac trans Ci fib]
-33.2 -36.7 71 -38 -38 опасность
обморожения
1010.7 974.1
09 16.12 штиль 0
{2}
50 км 4/0
[Ac lent Ci fib]
-35.0 -38.8 68 -35 -35 опасность
обморожения
1010.7 973.7 -27.2
12 16.12 штиль 0
{2}
50 км 8/3 1000 м
[Sc Ac trans Ci fib]
-34.2 -37.9 69 -34 -34 опасность
обморожения
1010.3 973.5
15 16.12 штиль 0
{1}
50 км 5/0
[Ac trans Ci fib]
-35.5 -39.4 67 -36 -36 опасность
обморожения
1010.3 973.2
18 16.12 штиль 0
{1}
50 км 10/0
[Ac trans Cs]
-34.3 -38.2 68 -34 -34 опасность
обморожения
1010.3 973.5
21 16.12 штиль 0
{1}
8000 м дымка 3/0
[Ci fib]
-37.7 -41.8 65 -38 -38 опасность
обморожения
1012.2 974.7 -37.7 20
00 17.12 штиль 0
{1}
8000 м дымка 3/0
[Ci fib]
-38.7 -43.0 64 -39 -39 опасность
обморожения
1013.4 975.7 -39.2
03 17.12 штиль 0
{1}
8000 м дымка 3/0
[Ci fib]
-39.2 -43.6 63 -39 -39 опасность
обморожения
1014.0 976.3
06 17.12 штиль 0 3000 м дымка 3/0
[Ci fib]
-40.1 -44.6 62 -40 -40 опасность
обморожения
1015.0 977.1
09 17.12 штиль 0
{1}
3800 м дымка 5/0
[Ci fib]
-39.0 -43.4 63 -39 -39 опасность
обморожения
1015.3 977.5 -37.7
12 17.12 штиль 0
{1}
5000 м дымка 3/0
[Ci fib]
-39.8 -44.3 62 -40 -40 опасность
обморожения
1016.1 978.1
15 17.12 штиль 0
{1}
5000 м дымка 3/0
[Ci fib]
-40.3 -44.8 62 -40 -40 опасность
обморожения
1016.2 978.2
18 17.12 штиль 0 5000 м дымка 3/0
[Ci fib]
-40.6 -45.0 62 -41 -41 опасность
обморожения
1016.7 978.5
21 17.12 штиль 0
{1}
4500 м дымка 3/0
[Ci fib]
-40.5 -45.0 62 -41 -41 опасность
обморожения
1016.7 978.5 -41.0 20
00 18.12 штиль 0
{1}
8000 м дымка ясно -40.4 -44.9 62 -40 -40 опасность
обморожения
1016.6 978.6
03 18.12 штиль 0
{1}
8000 м дымка ясно -39.7 -44.2 62 -40 -40 опасность
обморожения
1015.8 977.8
06 18.12 штиль 0
{1}
6000 м дымка ясно -40.7 -45.3 61 -41 -41 опасность
обморожения
1015.7 977.5
09 18.12 штиль 0
{1}
4200 м дымка ясно -40.9 -45.5 61 -41 -41 опасность
обморожения
1015.3 977.3 -38.7
12 18.12 штиль 0
{1}
4500 м дымка ясно -40.9 -45.5 61 -41 -41 опасность
обморожения
1015.2 977.2

 

Местоположение метеостанции Омолон (Чукотка, Россия): широта 65.23 долгота 160.50 высота над уровнем моря 260 м.

В архиве по умолчанию представлена погода в Омолоне за последнюю неделю. Архивные данные за месяц целиком и за предыдущие месяцы, начиная с января 2011 года, Вы можете получить, выбрав интересующий диапазон дат из раскрывающегося списка и нажав кнопку "Ввод!".


*Определитесь, кто Вы:
робот инопланетянин человек

Внимание! Время в таблицах - всемирное. Для получения местного времени необходимо прибавить поправку, которая в Омолоне равна 12 ч.

Смотрите также архив погоды в соседних городах и на ближайших метеорологических станциях:

Погода в Кегали (Магаданская область, Россия) (112 км)
Погода в Верхне-Пенжино (Камчатский край, Россия) (209 км)
Погода в Баимке (Чукотка, Россия) (222 км)
Погода в Лабазной (Магаданская область, Россия) (235 км)
Погода в Коркодоне (Магаданская область, Россия) (315 км)
Погода в Константиновской (Чукотка, Россия) (326 км)
Погода в Балыгычане (Магаданская область, Россия) (339 км)
Погода в Анюйске (Чукотка, Россия) (350 км)
Погода на Островном (Чукотка, Россия) (358 км)
Погода в Эвенске (Магаданская область, Россия) (374 км)

Пояснения к столбцам:

Ветер - указаны скорость ветра в м/с - средняя за 10 мин, порывы в срок и между сроками (в фигурных скобках) и направление, откуда дует ветер: С - северный, СВ - северо-восточный, В - восточный, ЮВ - юго-восточный, Ю - южный, ЮЗ - юго-западный, З - западный, СЗ - северо-западный.
Видимость - горизонтальная дальность видимости в метрах или километрах. При видимости от 1 до 10 км при отсутствии осадков обычно наблюдается дымка, при ухудшении видимости до 1 км и менее - туман. В сухую погоду видимость может ухудшаться дымом, пылью или мглою.
Явления - указаны атмосферные явления, наблюдавшиеся в срок или в последний час перед сроком; фигурными скобками обозначены явления, наблюдавшиеся между сроками (за 1-3 часа до срока); квадратными скобками обозначены град или гололедные отложения с указанием их диаметра в мм.
Облачность - указаны через наклонную черту общая и нижняя облачность в баллах и высота нижней границы облаков в метрах; квадратными скобками обозначены формы облаков: Ci - перистые, Cs - перисто-слоистые, Cc - перисто-кучевые, Ac - высококучевые, As - высокослоистые, Sc - слоисто-кучевые, Ns - слоисто-дождевые, Cu - кучевые, Cb - кучево-дождевые. Подробнее классификацию облаков см. в Атласе облаков (PDF).
T - Температура воздуха - температура, измеренная на высоте 2 м над землей.
Td - Температура точки росы - температура, при понижении до которой содержащийся в воздухе водяной пар достигнет насыщения.
f - Относительная влажность воздуха - влажноcть воздуха, измеренная на высоте 2 м над землей.
Te - Эффективная температура - температура, которую ощущает одетый по сезону человек в тени. Характеристика душности погоды. При расчете учитывается влияние влажности воздуха и скорости ветра на теплоощущения человека.
Tes - Эффективная температура на солнце - температура, которую ощущает человек, с поправкой на солнечный нагрев. Характеристика знойности погоды. Зависит от высоты солнца над горизонтом, облачности и скорости ветра. Ночью, в пасмурную погоду, а также при ветре 12 м/с и более поправка равна нулю.
P - Атмосферное давление - приведенное к уровню моря атмосферное давление.
Po - Атмосферное давление - измеренное на уровне метеостанции атмосферное давление.
Tmin - Минимальная температура - минимум температуры воздуха на высоте 2 м над землей.
Tmax - Максимальная температура - максимум температуры воздуха на высоте 2 м над землей.
R - Количество осадков - Количество выпавших осадков за период времени, мм. При наведении курсора мыши на число - период времени, за который выпало указанное количество осадков.
R24 - Количество осадков - Количество выпавших осадков за 24 часа, мм.
S - Снежный покров - Высота снежного покрова, см. При наведении курсора мыши на число - состояние снежного покрова и степень покрытия местности в баллах.